Home   Weather   Amsterdam Island   Past weeks

Flag for French Southern Territories Past Weather in Amsterdam Island, French Southern Territories — Yesterday and Last 2 Weeks

Now
56 °F

Cool.


Feels Like: 50 °F
Forecast: 53 / 57 °F
Wind: 23 mph from West

Location: Martin De Vivies Ile Amsterdam

Current Time: Jul 24, 2017 at 7:45:57 am

Latest Report: Jul 24, 2017 at 7:00 am


Visibility: N/A

Pressure: 29.86 "Hg

Humidity: 85%

Dew Point: 51 °F

Location of Amsterdam IslandLocation

Past Weather in Amsterdam Island — Graph

°F

Amsterdam Island Temperature Yesterday

Maximum temperature yesterday: 60 °F (at 1:00 pm)
Minimum temperature yesterday: 55 °F (at 11:00 pm)
Average temperature yesterday: 57 °F

High & Low Weather Summary for the Past Weeks

 TemperatureHumidityPressure
High62 °F (Jul 12, 12:00 pm)97% (Jul 12, 9:00 am)30.50 "Hg (Jul 12, 9:00 am)
Low45 °F (Jul 17, 4:00 am)51% (Jul 16, 1:00 pm)29.35 "Hg (Jul 13, 12:00 pm)
Average56 °F81%30.03 "Hg
* Reported Jul 9 5:00 am — Jul 24 5:00 am, Amsterdam Island. Weather by CustomWeather, © 2017

Note: Actual official high and low records may vary slightly from our data, if they occured in-between our weather recording intervals... More about our weather records

Advertising

Amsterdam Island Weather History for the Previous 24 Hours

Scroll right to see more
 ConditionsComfort  
Time TempWeatherWind HumidityBarometerVisibility
5:00 am
Mon, Jul 24
55 °FCool.18 mph88%29.85 "HgN/A
4:00 am56 °FCool.17 mph89%29.86 "HgN/A
3:00 am55 °FCool.17 mph90%29.87 "HgN/A
2:00 am55 °FCool.15 mph94%29.88 "HgN/A
1:00 am55 °FCool.14 mph94%29.89 "HgN/A
12:00 am54 °FCool.13 mph94%29.90 "HgN/A
11:00 pm
Sun, Jul 23
55 °FCool.12 mph94%29.91 "HgN/A
10:00 pm56 °FCool.13 mph93%29.91 "HgN/A
9:00 pm56 °FCool.15 mph93%29.92 "HgN/A
8:00 pm58 °FCool.22 mph90%29.91 "HgN/A
7:00 pm58 °FCool.21 mph89%29.91 "HgN/A
6:00 pm58 °FCool.22 mph89%29.92 "HgN/A
5:00 pm58 °FCool.20 mph89%29.92 "HgN/A
4:00 pm59 °FCool.21 mph87%29.93 "HgN/A
3:00 pm60 °FCool.20 mph85%29.92 "HgN/A
2:00 pm60 °FCool.22 mph84%29.93 "HgN/A
1:00 pm60 °FCool.23 mph85%29.96 "HgN/A
12:00 pm60 °FCool.21 mph85%29.98 "HgN/A
11:00 am59 °FCool.18 mph86%30.01 "HgN/A
10:00 am58 °FCool.21 mph85%30.02 "HgN/A
9:00 am58 °FCool.16 mph87%30.03 "HgN/A
8:00 am57 °FCool.17 mph88%30.03 "HgN/A
7:00 am56 °FCool.18 mph90%30.03 "HgN/A
Weather by CustomWeather, © 2017

See weather overviewHow to use our weather pages